Simultaneous Nadir Overpasses (SNOs) Predictions

Prediction of SNOs between AQUA and LANDSAT-8 Satellite Orbit:

Table of predicted SNOs for the next 14.0 days since TLE Epoch: 8/20/2025
Index Date (AQUA) Time (AQUA) Lat,Lon (AQUA) SZA (AQUA ) Date (LANDSAT-8) Time (LANDSAT-8) Lat,Lon (LANDSAT-8) SZA (LANDSAT-8 ) Distance(km) Time Diff (sec)
1 08/28/2025 19:44:17 -75.11, 73.31 114.18 08/28/2025 19:43:13 -75.11, 70.00 114.31 94.65 64
2 08/28/2025 20:33:41 75.37,-119.76 66.07 08/28/2025 20:32:33 75.38,-121.61 66.00 52.21 68
3 08/28/2025 21:23:05 -75.72, 46.89 113.61 08/28/2025 21:21:54 -75.70, 46.96 113.64 2.61 71
4 08/28/2025 22:12:23 75.69,-145.34 66.38 08/28/2025 22:11:20 75.68,-145.48 66.35 4.05 63
5 08/28/2025 23:01:40 -75.69, 22.33 113.61 08/28/2025 23:00:47 -75.71, 22.24 113.61 2.74 53
6 08/28/2025 23:50:59 75.71,-170.05 66.42 08/28/2025 23:50:12 75.73,-170.04 66.43 2.06 47
7 08/29/2025 00:40:16 -75.72, -2.38 113.57 08/29/2025 00:39:40 -75.71, -2.47 113.58 2.49 36
8 08/29/2025 01:29:35 75.73, 165.24 66.46 08/29/2025 01:29:05 75.73, 165.24 66.46 0.16 30
9 08/29/2025 02:18:52 -75.74, -27.09 113.52 08/29/2025 02:18:32 -75.76, -27.04 113.50 3.11 20
10 08/29/2025 03:08:11 75.76, 140.53 66.51 08/29/2025 03:07:58 75.74, 140.53 66.49 2.17 13
11 08/29/2025 03:57:28 -75.76, -51.81 113.48 08/29/2025 03:57:25 -75.77, -51.75 113.47 1.68 3
12 08/29/2025 04:46:46 75.73, 115.96 66.51 08/29/2025 04:46:51 75.74, 115.82 66.51 4.11 5
13 08/29/2025 05:36:04 -75.78, -76.52 113.44 08/29/2025 05:36:18 -75.77, -76.46 113.45 2.16 14
14 08/29/2025 06:25:22 75.75, 91.25 66.55 08/29/2025 06:25:44 75.74, 91.11 66.54 4.04 22
15 08/29/2025 07:14:39 -75.75,-101.08 113.44 08/29/2025 07:15:11 -75.77,-101.17 113.42 3.12 32
16 08/29/2025 08:03:58 75.77, 66.54 66.60 08/29/2025 08:04:36 75.79, 66.54 66.62 2.42 38
17 08/29/2025 08:53:15 -75.78,-125.79 113.39 08/29/2025 08:54:04 -75.77,-125.88 113.39 2.52 49
18 08/29/2025 09:42:34 75.79, 41.82 66.64 08/29/2025 09:43:29 75.80, 41.83 66.65 0.31 55
19 08/29/2025 10:31:51 -75.80,-150.51 113.35 08/29/2025 10:32:57 -75.78,-150.60 113.36 3.43 66
20 08/29/2025 11:21:10 75.82, 17.11 66.69 08/29/2025 11:22:22 75.80, 17.12 66.68 1.83 72
21 08/29/2025 12:10:35 -76.21,-176.45 112.95 08/29/2025 12:11:42 -76.17,-174.11 112.91 62.30 67



Historial Predications of SNOs between AQUA and LANDSAT-8
